Regional Weather Roundup
Issued by NWS Cleveland, OH

Home | Current Version | Previous Version | Graphics & Text | Print | Product List | Glossary On
Versions: 1 2 3 4 5 6 7 8 9 10 11 12 13 14 15 16 17 18 19 20 21 22 23 24 25 26 27 28 29 30 31 32 33 34 35 36 37 38 39 40 41 42 43 44 45 46 47 48 49 50
000
ASUS41 KCLE 281000
RWRCLE
OHIO REGIONAL WEATHER ROUNDUP
NATIONAL WEATHER SERVICE WILMINGTON, OH
600 AM EDT TUE MAR 28 2017

NOTE: "FAIR" INDICATES FEW OR NO CLOUDS BELOW 12,000 FEET WITH NO
SIGNIFICANT WEATHER AND/OR OBSTRUCTIONS TO VISIBILITY.

OHZ001>008-015>018-024>027-034-035-043-044-281100-
   NORTHWEST OHIO

CITY           SKY/WX    TMP DP  RH WIND       PRES   REMARKS
DEFIANCE       CLOUDY    49  45  86 N9        29.92R
FINDLAY        LGT RAIN  51  48  89 N15       29.87R
TOLEDO EXPRESS CLOUDY    49  46  90 N7        29.91R
TOLEDO EXEC    CLOUDY    45  43  93 NE8       29.93R
LIMA           LGT RAIN  52  51  97 NE9       29.87R
$$

OHZ009>014-019>023-028>033-038-089-281100-
   NORTHEAST OHIO

CITY           SKY/WX    TMP DP  RH WIND       PRES   REMARKS
CLE-HOPKINS    LGT RAIN  50  46  86 N10       29.89R FOG
CLE-LAKEFRONT  CLOUDY    42  39  89 NE6       29.88R FOG
CUY CO. ARPT   NOT AVBL
LORAIN-ELYRIA  LGT RAIN  48  44  86 NE13      29.87R
ASHTABULA      CLOUDY    48  47  96 CALM      29.88R FOG
AKRON-CANTON   LGT RAIN  52  49  89 NE8       29.84S FOG
WOOSTER        NOT AVBL
MANSFIELD      LGT RAIN  52  51  97 N6        29.85R FOG
YOUNGSTOWN     LGT RAIN  51  49  92 N5        29.86S
$$

OHZ042-051>053-060>062-070>072-077>081-281100-
  SOUTHWEST OHIO

CITY           SKY/WX    TMP DP  RH WIND       PRES   REMARKS
CINC-COVINGTON LGT RAIN  55  55 100 SW3       29.85R FOG
CINC-LUNKEN    CLOUDY    56  56 100 S3        29.85R
HAMILTON       LGT RAIN  57  56  96 SW5       29.85R
DAYTON         CLOUDY    54  54 100 NE6       29.83S FOG
WRIGHT-PAT AFB NOT AVBL
DAYTON GENERAL CLOUDY    56  55  97 S3        29.83R FOG
WILMINGTON     CLOUDY    54  54 100 SW5       29.83S
$$

OHZ036-037-039>041-045>050-054>059-063>069-073>076-082>088-281100-
  CENTRAL AND SOUTHEAST OHIO

CITY           SKY/WX    TMP DP  RH WIND       PRES   REMARKS
COLUMBUS       CLOUDY    57  56  96 NW6       29.82S FOG
OSU AIRPORT    CLOUDY    54  54 100 W5        29.83S FOG
BOLTON FIELD   NOT AVBL
RICKENBACK AFB NOT AVBL
NEWARK         CLOUDY    56  54  93 W3        29.82S
MARION         LGT RAIN  52  51  97 N9        29.86R FOG
LANCASTER      CLOUDY    58  55  90 SW5       29.84R
ZANESVILLE     MOCLDY    56  53  90 SW5       29.83S
NEW PHILLY     LGT RAIN  54  53  97 SE5       29.83S
$$




USA.gov is the U.S. government's official web portal to all federal, state and local government web resources and services.